Total_Precipitation_Accumulation
0.04 0.01 0.02 0.02 0.02 0.02 0.01 0.03 0.06 0.10 0.11 0.13 0.15 0.15 0.16 0.13 0.12 0.12 0.11 0.11 0.12 0.15 0.20 0.27 0.29 0.33 0.37 0.35 0.24 0.15 0.12 0.10 0.08 0.06 0.06 0.08 0.09 0.11 0.14 0.13 0.12 0.09 0.06
0.04 0.02 0.02 0.02 0.03 0.03 0.02 0.02 0.05 0.08 0.10 0.11 0.11 0.11 0.12 0.12 0.12 0.13 0.13 0.14 0.16 0.19 0.19 0.21 0.25 0.29 0.29 0.24 0.18 0.11 0.08 0.07 0.09 0.13 0.17 0.22 0.26 0.24 0.24 0.21 0.20 0.16 0.06
0.03 0.02 0.02 0.02 0.03 0.04 0.03 0.03 0.05 0.08 0.12 0.14 0.13 0.11 0.10 0.09 0.10 0.10 0.11 0.14 0.20 0.24 0.22 0.20 0.20 0.21 0.21 0.16 0.11 0.07 0.06 0.08 0.13 0.21 0.40 0.52 0.50 0.43 0.38 0.34 0.32 0.20 0.09
0.04 0.02 0.02 0.02 0.03 0.05 0.05 0.05 0.06 0.09 0.13 0.17 0.18 0.17 0.14 0.11 0.11 0.12 0.12 0.14 0.20 0.22 0.20 0.16 0.14 0.13 0.11 0.08 0.06 0.05 0.06 0.11 0.19 0.30 0.59 0.58 0.52 0.45 0.38 0.37 0.41 0.35 0.26
0.04 0.02 0.02 0.02 0.03 0.06 0.07 0.08 0.09 0.12 0.16 0.20 0.24 0.25 0.19 0.13 0.11 0.14 0.16 0.17 0.18 0.22 0.22 0.18 0.13 0.09 0.06 0.05 0.05 0.05 0.07 0.13 0.25 0.45 0.73 0.81 0.72 0.61 0.44 0.37 0.40 0.43 0.42
0.04 0.03 0.02 0.02 0.03 0.06 0.09 0.10 0.13 0.15 0.19 0.25 0.29 0.29 0.21 0.14 0.13 0.16 0.20 0.22 0.23 0.26 0.30 0.25 0.22 0.15 0.10 0.07 0.06 0.07 0.11 0.20 0.30 0.58 0.81 0.95 0.79 0.65 0.45 0.35 0.33 0.43 0.46
0.06 0.06 0.05 0.04 0.04 0.07 0.10 0.10 0.13 0.17 0.22 0.28 0.32 0.28 0.21 0.15 0.13 0.16 0.22 0.25 0.28 0.30 0.29 0.24 0.21 0.16 0.14 0.13 0.13 0.16 0.23 0.34 0.42 0.64 0.82 0.79 0.74 0.59 0.42 0.35 0.30 0.28 0.33
0.12 0.10 0.07 0.06 0.06 0.13 0.18 0.14 0.12 0.16 0.21 0.27 0.32 0.28 0.21 0.17 0.18 0.22 0.23 0.27 0.29 0.25 0.21 0.19 0.17 0.15 0.16 0.21 0.23 0.25 0.31 0.36 0.36 0.53 0.68 0.71 0.53 0.41 0.40 0.38 0.32 0.26 0.24
0.21 0.17 0.11 0.09 0.08 0.11 0.12 0.12 0.15 0.16 0.20 0.26 0.29 0.32 0.26 0.21 0.27 0.31 0.29 0.30 0.32 0.26 0.20 0.19 0.19 0.16 0.21 0.27 0.24 0.22 0.25 0.25 0.25 0.40 0.54 0.68 0.42 0.35 0.34 0.31 0.26 0.23 0.22
0.54 0.62 0.41 0.28 0.18 0.11 0.10 0.12 0.14 0.16 0.19 0.22 0.23 0.24 0.23 0.23 0.26 0.28 0.25 0.24 0.24 0.19 0.14 0.13 0.14 0.14 0.13 0.12 0.10 0.10 0.12 0.11 0.15 0.29 0.52 0.53 0.44 0.41 0.36 0.29 0.24 0.22 0.22
0.99 1.16 0.84 0.46 0.29 0.24 0.21 0.18 0.18 0.15 0.18 0.16 0.15 0.18 0.22 0.30 0.34 0.32 0.22 0.19 0.14 0.10 0.08 0.07 0.06 0.05 0.04 0.04 0.06 0.08 0.08 0.07 0.17 0.27 0.41 0.47 0.47 0.46 0.44 0.37 0.30 0.26 0.25
1.11 1.15 0.99 0.55 0.50 0.54 0.44 0.33 0.27 0.20 0.18 0.17 0.20 0.18 0.25 0.46 0.52 0.38 0.33 0.20 0.14 0.12 0.10 0.10 0.09 0.07 0.05 0.05 0.06 0.07 0.06 0.08 0.18 0.25 0.31 0.42 0.49 0.53 0.51 0.43 0.34 0.32 0.30
1.07 0.87 0.78 0.67 0.58 0.63 0.59 0.52 0.46 0.38 0.39 0.39 0.42 0.36 0.45 0.51 0.40 0.33 0.36 0.30 0.26 0.21 0.21 0.20 0.13 0.10 0.09 0.10 0.09 0.09 0.10 0.13 0.20 0.21 0.22 0.33 0.42 0.54 0.58 0.51 0.42 0.38 0.37
1.00 0.89 0.87 0.89 0.76 0.76 0.86 0.83 0.87 0.79 0.66 0.56 0.57 0.52 0.63 0.75 0.67 0.63 0.65 0.58 0.59 0.54 0.48 0.36 0.27 0.21 0.17 0.16 0.16 0.21 0.24 0.22 0.24 0.23 0.26 0.32 0.38 0.53 0.62 0.61 0.55 0.52 0.47
1.23 1.15 1.02 1.06 1.03 0.97 1.11 1.12 1.01 0.96 0.81 0.69 0.67 0.68 0.74 0.80 0.84 0.91 0.88 0.97 0.96 0.82 0.64 0.53 0.41 0.38 0.36 0.33 0.32 0.32 0.34 0.38 0.39 0.38 0.36 0.40 0.41 0.46 0.58 0.66 0.67 0.65 0.63
1.58 1.45 1.18 1.12 1.07 1.01 1.06 1.14 1.11 1.01 0.92 0.89 0.92 0.87 0.83 0.92 1.16 1.22 1.18 1.12 1.02 0.92 0.85 0.78 0.70 0.65 0.59 0.57 0.50 0.49 0.49 0.51 0.52 0.54 0.58 0.61 0.53 0.46 0.53 0.65 0.73 0.74 0.76
1.92 1.85 1.55 1.32 1.30 1.23 1.16 1.20 1.14 1.12 1.24 1.18 1.28 1.35 1.18 1.07 1.20 1.30 1.41 1.33 1.19 1.14 1.05 0.93 0.92 0.87 0.81 0.78 0.74 0.68 0.65 0.62 0.55 0.57 0.66 0.72 0.68 0.59 0.58 0.64 0.68 0.74 0.80
2.39 2.27 1.75 1.35 1.45 1.53 1.55 1.50 1.51 1.49 1.51 1.47 1.40 1.49 1.46 1.49 1.45 1.46 1.49 1.38 1.29 1.26 1.34 1.33 1.30 1.25 1.13 1.06 1.03 0.88 0.82 0.77 0.68 0.64 0.70 0.75 0.82 0.79 0.73 0.68 0.65 0.67 0.71
2.90 2.68 2.05 1.75 1.81 1.86 1.92 2.06 2.17 2.27 2.17 2.07 1.93 1.82 1.75 1.79 1.77 1.77 1.81 1.72 1.64 1.67 1.66 1.49 1.49 1.52 1.50 1.38 1.18 1.05 0.94 0.90 0.83 0.74 0.76 0.74 0.79 0.83 0.79 0.69 0.64 0.65 0.69
3.13 2.95 2.52 2.23 2.30 2.24 2.19 2.35 2.49 2.58 2.60 2.63 2.61 2.46 2.28 2.23 2.27 2.34 2.40 2.31 2.13 2.07 2.02 1.99 1.91 1.66 1.46 1.33 1.18 1.09 1.01 0.94 0.88 0.78 0.74 0.68 0.65 0.64 0.72 0.75 0.74 0.69 0.69
2.45 2.49 2.57 2.53 2.54 2.57 2.57 2.61 2.80 3.00 3.06 3.01 3.02 3.00 2.92 2.86 2.89 2.97 2.93 2.85 2.60 2.39 2.23 2.11 1.96 1.76 1.53 1.33 1.28 1.18 0.99 0.85 0.81 0.74 0.69 0.68 0.63 0.58 0.61 0.66 0.62 0.55 0.53
2.20 2.38 2.49 2.44 2.62 2.85 3.17 3.55 3.87 4.09 4.00 3.84 3.75 3.63 3.52 3.44 3.35 3.24 3.16 3.00 2.77 2.55 2.26 2.05 1.92 1.79 1.64 1.45 1.33 1.31 1.11 0.93 0.74 0.61 0.55 0.49 0.45 0.42 0.42 0.41 0.42 0.44 0.44
1.88 2.13 2.31 2.52 2.94 3.41 3.90 4.53 4.98 4.91 4.62 4.45 4.16 4.04 3.77 3.49 3.41 3.38 3.12 2.93 2.74 2.52 2.32 2.07 1.92 1.83 1.64 1.47 1.34 1.30 1.14 0.96 0.79 0.61 0.47 0.39 0.35 0.33 0.31 0.32 0.34 0.38 0.41
1.73 2.09 2.39 2.76 3.27 3.87 4.35 4.80 5.11 5.15 4.95 4.71 4.26 3.89 3.48 3.11 2.92 2.84 2.74 2.55 2.41 2.25 2.06 1.90 1.82 1.71 1.55 1.34 1.17 1.02 0.91 0.80 0.74 0.63 0.46 0.35 0.30 0.29 0.28 0.28 0.29 0.31 0.34
1.59 2.02 2.38 2.71 3.26 3.81 4.31 4.66 4.88 4.98 4.86 4.54 3.93 3.37 3.00 2.70 2.47 2.25 2.09 1.99 1.92 1.80 1.58 1.42 1.37 1.30 1.20 1.07 0.98 0.86 0.75 0.66 0.61 0.58 0.51 0.38 0.32 0.28 0.26 0.25 0.24 0.24 0.24
1.37 1.73 2.07 2.43 3.06 3.70 4.21 4.56 4.80 4.80 4.51 4.00 3.43 2.92 2.64 2.42 2.19 1.98 1.83 1.64 1.50 1.37 1.18 0.99 0.92 0.93 0.94 0.92 0.84 0.74 0.63 0.55 0.50 0.50 0.48 0.41 0.36 0.30 0.25 0.24 0.24 0.23 0.24